Home > Time Zones > World Clock > Weather > France > Caen > Past weeks

Flag for France Weather past 2 weeks in Caen, France

Now
63 °F

Clear.


Feels Like: 63 °F
Forecast: 57 / 72 °F
Wind: No wind

Location: Caen Airport

Current Time: Aug 3, 2015 at 11:57:32 PM

Latest Report: Aug 3, 2015 at 11:00 PM


Visibility: 10 mi

Pressure: 29.92 "Hg

Humidity: 88%

Dew point: 59 °F

Location of CaenLocation

Historic Weather in Caen — Graph

°F

Caen temperature yesterday

Maximum temperature yesterday: 84 °F (at 5:00 PM)
Minimum temperature yesterday: 45 °F (at 6:30 AM)
Average temperature yesterday: 66 °F

Past Weeks' High & Low Weather Summary

 TemperatureHumidityPressure
High84 °F (Aug 2, 5:00 PM)100% (Jul 19, 10:00 PM)30.15 "Hg (Jul 19, 10:00 PM)
Low43 °F (Jul 31, 5:00 AM)26% (Aug 2, 4:00 PM)29.56 "Hg (Jul 24, 9:00 PM)
Average62 °F75%29.95 "Hg
* Reported Jul 19 10:00 PM — Aug 3 10:30 PM, Caen, Weather by CustomWeather, © 2015

Note: Actual official high and low records may vary slightly from our data, if they occured in-between our weather recording intervals... More about our weather records

Advertising

Caen weather history for previous 24 hours

 ConditionsComfort  
Time TempWeatherWind HumidityBarometerVisibility
10:30 PM
Mon, Aug 3
63 °FSunny.No wind88%29.92 "Hg10 mi
10:00 PM64 °FSunny.2 mph88%29.92 "Hg10 mi
9:30 PM64 °FPassing clouds.5 mph88%29.89 "HgN/A
9:00 PM66 °FPassing clouds.5 mph83%29.89 "HgN/A
8:30 PM68 °FPassing clouds.8 mph78%29.92 "HgN/A
8:00 PM70 °FPassing clouds.9 mph73%29.89 "HgN/A
7:30 PM70 °FPassing clouds.10 mph78%29.89 "HgN/A
7:00 PM79 °FSunny.10 mph51%29.89 "Hg10 mi
6:30 PM81 °FSunny.12 mph48%29.89 "Hg10 mi
6:00 PM81 °FPassing clouds.13 mph51%29.89 "HgN/A
5:30 PM79 °FPassing clouds.13 mph51%29.89 "HgN/A
5:00 PM81 °FPassing clouds.12 mph51%29.89 "HgN/A
4:30 PM81 °FScattered clouds.12 mph51%29.92 "HgN/A
4:00 PM79 °FPassing clouds.13 mph54%29.92 "HgN/A
3:30 PM79 °FPartly sunny.13 mph54%29.92 "HgN/A
3:00 PM79 °FPartly sunny.14 mph54%29.92 "HgN/A
2:30 PM77 °FPartly sunny.14 mph57%29.95 "HgN/A
2:00 PM79 °FPartly sunny.14 mph54%29.92 "HgN/A
1:30 PM77 °FPassing clouds.14 mph57%29.95 "HgN/A
1:00 PM77 °FScattered clouds.12 mph54%29.95 "HgN/A
12:30 PM75 °FPartly sunny.10 mph61%29.95 "HgN/A
12:00 PM75 °FPassing clouds.9 mph61%29.95 "HgN/A
11:30 AM73 °FScattered clouds.10 mph61%29.95 "HgN/A
11:00 AM72 °FOvercast.10 mph65%29.95 "HgN/A
10:30 AM70 °FOvercast.12 mph69%29.95 "HgN/A
10:00 AM70 °FScattered clouds.9 mph73%29.95 "HgN/A
9:30 AM70 °FPartly sunny.5 mph73%29.95 "HgN/A
9:00 AM64 °FOvercast.5 mph83%29.95 "HgN/A
8:30 AM64 °FOvercast.5 mph83%29.95 "HgN/A
8:00 AM63 °FPassing clouds.5 mph88%29.92 "HgN/A
7:30 AM61 °FPassing clouds.6 mph88%29.92 "HgN/A
7:00 AM57 °FClear.6 mph94%29.92 "Hg10 mi
6:00 AM55 °FClear.2 mph88%29.89 "Hg10 mi
5:30 AM55 °FClear.3 mph82%29.89 "Hg10 mi
5:00 AM57 °FClear.5 mph77%29.89 "Hg10 mi
4:30 AM57 °FClear.6 mph77%29.89 "Hg10 mi
4:00 AM61 °FClear.3 mph63%29.89 "Hg10 mi
3:30 AM61 °FClear.No wind68%29.89 "Hg10 mi
3:00 AM61 °FClear.5 mph68%29.89 "Hg10 mi
2:30 AM64 °FClear.3 mph60%29.89 "Hg10 mi
2:00 AM63 °FClear.3 mph64%29.89 "Hg10 mi
1:30 AM63 °FClear.5 mph64%29.89 "Hg10 mi
1:00 AM63 °FClear.7 mph64%29.89 "Hg10 mi
12:30 AM63 °FClear.6 mph64%29.89 "Hg10 mi
12:00 AM66 °FClear.7 mph60%29.89 "Hg10 mi
11:30 PM
Sun, Aug 2
64 °FClear.6 mph60%29.89 "Hg10 mi
11:00 PM66 °FClear.6 mph56%29.89 "Hg10 mi
Weather by CustomWeather, © 2015

See weather overviewHow to use our weather pages